HRC MONOBLOCK CAMERA

基本信息
目录编号:
66052
目录名称:
HRC MONOBLOCK CAMERA
国际标识:
1998-067XR
轨道中心:
EARTH
卫星名称:
HRC MONOBLOCK CAMERA
卫星全名:
HRC MONOBLOCK CAMERA
卫星状态:
在轨 (已飞行9885 天)
发射日期:
1998-11-20 UTC
国别 :
俄罗斯(独联体) (CIS)
星等 :
--
轨道信息
数据来源 国际轨道数据 AOE轨道数据
星历时间 2025-12-13T07:20:40+0800
10小时前
查看轨道信息
2025-12-07T04:00:00+0800
6天前
查看轨道信息
半长轴 6782.748km 6784.461km
偏心率 0.0003312 0.0003978
轨道倾角 51.629° 51.629°
近地点辐角 185.372° 160.132°
升交点赤经 140.346° 170.946°
平近点角 174.724° 34.603°
近地点 402.366km 403.627km
远地点 406.86km 409.025km
周期 92.655分钟 92.690分钟
每日圈数 15.541549 15.535664
详细信息
使用方式:
暂无
2D轨道图
3D轨道图
轨道高度分析图
轨道倾角分析图
轨道综合分析图
查看轨道综合分析图